Flag for Switzerland Weather past 2 weeks in Steffisburg, Bern, Switzerland

Now
32 °F

Snow flurries. Passing clouds.


Feels Like: 27 °F
Forecast: 30 / 40 °F
Wind: 5 mph from Southeast

Location: Bern / Belp

Current Time: Dec 26, 2014 at 1:17:21 AM

Latest Report: Dec 26, 2014 at 12:20 AM


Visibility: N/A

Pressure: 30.39 "Hg

Humidity: 100%

Dew point: 32 °F

Location of SteffisburgLocation

Historic Weather in Steffisburg — Graph

°F

Steffisburg temperature yesterday

Maximum temperature yesterday: 48 °F (at 12:20 PM)
Minimum temperature yesterday: 30 °F (at 9:20 PM)
Average temperature yesterday: 37 °F

Past Weeks' High & Low Weather Summary

 TemperatureHumidityPressure
High54 °F (Dec 19, 2:20 PM)100% (Dec 11, 7:20 AM)30.54 "Hg (Dec 11, 7:20 AM)
Low23 °F (Dec 23, 7:50 AM)47% (Dec 23, 2:20 PM)29.86 "Hg (Dec 12, 3:20 PM)
Average38 °F88%30.18 "Hg
* Reported Dec 11 12:20 AM — Dec 26 12:20 AM, Steffisburg, Weather by CustomWeather, © 2014

Note: Actual official high and low records may vary slightly from our data, if they occured in-between our weather recording intervals... More about our weather records

Advertising

Steffisburg weather history for previous 24 hours

 ConditionsComfort  
Time TempWeatherWind HumidityBarometerVisibility
12:20 AM
Dec 26
32 °FSnow flurries. Passing clouds.5 mph100%30.39 "HgN/A
11:50 PM
Dec 25
34 °FSnow flurries. Partly cloudy.3 mph87%30.42 "HgN/A
11:20 PM32 °FSprinkles. Passing clouds.3 mph100%30.42 "HgN/A
10:50 PM32 °FOvercast.1 mph93%30.42 "HgN/A
10:20 PM30 °FPassing clouds.1 mph93%30.42 "HgN/A
9:50 PM30 °FPassing clouds.1 mph93%30.39 "HgN/A
9:20 PM30 °FClear.3 mph100%30.39 "Hg10 mi
8:50 PM32 °FClear.2 mph93%30.39 "Hg10 mi
8:20 PM34 °FPassing clouds.1 mph93%30.39 "HgN/A
7:50 PM36 °FPassing clouds.2 mph87%30.39 "HgN/A
7:20 PM37 °FPassing clouds.2 mph81%30.39 "HgN/A
6:50 PM37 °FMostly cloudy.1 mph81%30.39 "HgN/A
6:20 PM39 °FOvercast.1 mph75%30.36 "HgN/A
5:50 PM39 °FOvercast.3 mph75%30.36 "HgN/A
5:20 PM39 °FOvercast.3 mph75%30.33 "HgN/A
4:20 PM41 °FBroken clouds.3 mph76%30.33 "HgN/A
3:50 PM43 °FPartly sunny.6 mph71%30.33 "HgN/A
3:20 PM43 °FPartly sunny.8 mph71%30.30 "HgN/A
2:50 PM43 °FPartly sunny.9 mph71%30.30 "HgN/A
2:20 PM43 °FPartly sunny.9 mph76%30.30 "HgN/A
1:50 PM43 °FScattered showers. Partly sunny.6 mph81%30.30 "HgN/A
1:20 PM45 °FScattered clouds.9 mph76%30.30 "HgN/A
12:50 PM45 °FPartly sunny.13 mph87%30.30 "HgN/A
12:20 PM48 °FBroken clouds.8 mph71%30.30 "HgN/A
11:50 AM46 °FBroken clouds.7 mph76%30.30 "HgN/A
11:20 AM41 °FBroken clouds.1 mph93%30.30 "HgN/A
10:50 AM39 °FBroken clouds.2 mph100%30.30 "HgN/A
10:20 AM37 °FSprinkles. Broken clouds.1 mph93%30.30 "HgN/A
9:50 AM37 °FPartly sunny.2 mph93%30.30 "HgN/A
9:20 AM36 °FSprinkles. Partly sunny.3 mph93%30.30 "HgN/A
8:50 AM34 °FDrizzle. Partly sunny.3 mph100%30.30 "HgN/A
8:20 AM34 °FDrizzle. Partly sunny.2 mph93%30.30 "HgN/A
7:50 AM34 °FPartly cloudy.3 mph93%30.30 "HgN/A
7:20 AM34 °FPartly cloudy.2 mph93%30.30 "HgN/A
6:50 AM36 °FDrizzle. Overcast.2 mph93%30.30 "HgN/A
6:20 AM36 °FPassing clouds.2 mph93%30.30 "HgN/A
5:50 AM36 °FOvercast.2 mph93%30.30 "HgN/A
5:20 AM36 °FMostly cloudy.3 mph93%30.27 "HgN/A
4:20 AM36 °FOvercast.2 mph87%30.30 "HgN/A
3:50 AM34 °FOvercast.2 mph93%30.30 "HgN/A
3:20 AM34 °FPassing clouds.1 mph93%30.30 "HgN/A
2:50 AM34 °FPartly cloudy.1 mph93%30.30 "HgN/A
2:20 AM34 °FPartly cloudy.1 mph93%30.30 "HgN/A
1:50 AM34 °FOvercast.1 mph93%30.30 "HgN/A
1:20 AM34 °FMostly cloudy.1 mph93%30.30 "HgN/A
Weather by CustomWeather, © 2014

See weather overviewHow to use our weather pages